QFA55 PAOM-PANC

Flight info

Callsign QFA55
Flight time 1h 16m
Altitude 35000
Route OME J111 WINOR KROTO5
Aircraft B738/M-SDE2E3FGHIRWXY/LB1

Departure

Time 2026-04-15 08:48
Airport Nome Airport (PAOM)

Arrival

Time 2026-04-15 10:04
Airport Ted Stevens Anchorage International Airport (PANC)
Time Latitude Longitude Altitude Speed Heading
2026-04-15 08:36 64.50820 -165.44384 46 ft 0 kts 89°
2026-04-15 08:44 64.50820 -165.44383 46 ft 0 kts 89°
2026-04-15 08:44 64.50820 -165.44374 46 ft 2 kts 89°
2026-04-15 08:45 64.50822 -165.44333 46 ft 5 kts 74°
2026-04-15 08:45 64.50865 -165.44314 46 ft 9 kts 316°
2026-04-15 08:45 64.50837 -165.44460 46 ft 13 kts 220°
2026-04-15 08:45 64.50758 -165.44615 46 ft 17 kts 220°
2026-04-15 08:46 64.50692 -165.44818 46 ft 15 kts 274°
2026-04-15 08:46 64.50744 -165.45008 46 ft 15 kts 319°
2026-04-15 08:46 64.50801 -165.45020 46 ft 0 kts 38°
2026-04-15 08:47 64.50801 -165.45019 46 ft 0 kts 38°
2026-04-15 08:47 64.50884 -165.44855 47 ft 52 kts 42°
2026-04-15 08:47 64.51356 -165.43872 47 ft 128 kts 42°
2026-04-15 08:47 64.52136 -165.42238 357 ft 154 kts 42°
2026-04-15 08:48 64.52701 -165.40260 1150 ft 155 kts 75°
2026-04-15 08:48 64.52674 -165.37552 1572 ft 182 kts 109°
2026-04-15 08:48 64.52049 -165.34962 2394 ft 178 kts 124°
2026-04-15 08:48 64.51318 -165.32605 3039 ft 189 kts 126°
2026-04-15 08:49 64.50388 -165.30055 3266 ft 220 kts 132°
2026-04-15 08:49 64.49337 -165.27318 3824 ft 236 kts 129°
2026-04-15 08:49 64.48444 -165.23997 4447 ft 249 kts 112°
2026-04-15 08:49 64.47922 -165.20122 5244 ft 255 kts 105°
2026-04-15 08:50 64.47464 -165.16115 6060 ft 259 kts 104°
2026-04-15 08:50 64.47012 -165.12035 6865 ft 263 kts 104°
2026-04-15 08:50 64.46553 -165.07897 7654 ft 267 kts 104°
2026-04-15 08:50 64.46080 -165.03689 8422 ft 272 kts 105°
2026-04-15 08:51 64.45595 -164.99417 9181 ft 276 kts 105°
2026-04-15 08:51 64.45100 -164.95083 9928 ft 280 kts 105°
2026-04-15 08:51 64.44588 -164.90615 10403 ft 295 kts 105°
2026-04-15 08:51 64.44047 -164.85890 10761 ft 312 kts 105°
2026-04-15 08:52 64.43476 -164.80912 11208 ft 325 kts 105°
2026-04-15 08:52 64.42888 -164.75816 11861 ft 331 kts 105°
2026-04-15 08:52 64.42289 -164.70638 12551 ft 336 kts 105°
2026-04-15 08:52 64.41680 -164.65392 13230 ft 341 kts 105°
2026-04-15 08:53 64.41058 -164.60052 13897 ft 346 kts 105°
2026-04-15 08:53 64.40425 -164.54640 14572 ft 351 kts 106°
2026-04-15 08:53 64.39781 -164.49156 15232 ft 356 kts 106°
2026-04-15 08:53 64.39125 -164.43586 15899 ft 362 kts 106°
2026-04-15 08:54 64.38457 -164.37936 16547 ft 367 kts 107°
2026-04-15 08:54 64.37776 -164.32204 17198 ft 372 kts 107°
2026-04-15 08:54 64.37085 -164.26400 17858 ft 377 kts 107°
2026-04-15 08:54 64.36381 -164.20526 18500 ft 382 kts 107°
2026-04-15 08:55 64.35663 -164.14572 19159 ft 387 kts 107°
2026-04-15 08:55 64.34940 -164.08572 19823 ft 390 kts 107°
2026-04-15 08:55 64.34208 -164.02507 20460 ft 394 kts 107°
2026-04-15 08:55 64.33458 -163.96306 21089 ft 398 kts 107°
2026-04-15 08:56 64.32705 -163.90129 21694 ft 402 kts 107°
2026-04-15 08:56 64.31941 -163.83899 22291 ft 405 kts 107°
2026-04-15 08:56 64.31169 -163.77631 22873 ft 409 kts 107°
2026-04-15 08:56 64.30388 -163.71310 23444 ft 412 kts 107°
2026-04-15 08:57 64.29599 -163.64937 23988 ft 415 kts 107°
2026-04-15 08:57 64.28801 -163.58531 24507 ft 418 kts 108°
2026-04-15 08:57 64.27993 -163.52066 24996 ft 422 kts 108°
2026-04-15 08:57 64.27176 -163.45555 25463 ft 426 kts 108°
2026-04-15 08:58 64.26347 -163.38979 25920 ft 429 kts 108°
2026-04-15 08:58 64.24661 -163.25686 26787 ft 436 kts 108°
2026-04-15 08:58 64.23803 -163.18961 27192 ft 440 kts 108°
2026-04-15 08:59 64.22934 -163.12185 27588 ft 444 kts 108°
2026-04-15 08:59 64.22055 -163.05358 27962 ft 447 kts 108°
2026-04-15 08:59 64.21167 -162.98491 28336 ft 451 kts 109°
2026-04-15 08:59 64.20268 -162.91566 28682 ft 454 kts 109°
2026-04-15 09:00 64.19360 -162.84596 29021 ft 457 kts 109°
2026-04-15 09:00 64.18441 -162.77581 29336 ft 461 kts 109°
2026-04-15 09:00 64.17513 -162.70524 29640 ft 464 kts 109°
2026-04-15 09:00 64.16566 -162.63365 29681 ft 474 kts 109°
2026-04-15 09:01 64.15598 -162.56076 29786 ft 481 kts 109°
2026-04-15 09:01 64.14619 -162.48726 29991 ft 484 kts 109°
2026-04-15 09:01 64.13631 -162.41336 30265 ft 486 kts 109°
2026-04-15 09:01 64.12637 -162.33931 30544 ft 487 kts 109°
2026-04-15 09:02 64.11635 -162.26518 30835 ft 487 kts 109°
2026-04-15 09:02 64.10630 -162.19110 31124 ft 488 kts 110°
2026-04-15 09:02 64.09620 -162.11703 31409 ft 488 kts 110°
2026-04-15 09:02 64.08605 -162.04293 31690 ft 488 kts 110°
2026-04-15 09:03 64.07586 -161.96885 31964 ft 489 kts 110°
2026-04-15 09:03 64.06565 -161.89485 32250 ft 488 kts 110°
2026-04-15 09:03 64.05540 -161.82098 32525 ft 488 kts 110°
2026-04-15 09:03 64.04498 -161.74622 32785 ft 488 kts 110°
2026-04-15 09:04 64.03466 -161.67247 33034 ft 488 kts 110°
2026-04-15 09:04 64.02428 -161.59865 33276 ft 488 kts 110°
2026-04-15 09:04 64.01388 -161.52501 33511 ft 488 kts 110°
2026-04-15 09:04 64.00344 -161.45136 33754 ft 488 kts 110°
2026-04-15 09:05 63.99298 -161.37790 33962 ft 489 kts 110°
2026-04-15 09:05 63.98242 -161.30412 34152 ft 489 kts 110°
2026-04-15 09:05 63.97184 -161.23048 34337 ft 490 kts 110°
2026-04-15 09:05 63.96120 -161.15672 34538 ft 490 kts 110°
2026-04-15 09:06 63.95052 -161.08299 34735 ft 491 kts 110°
2026-04-15 09:06 63.93980 -161.00927 34928 ft 491 kts 110°
2026-04-15 09:06 63.91816 -160.86150 34954 ft 494 kts 110°
2026-04-15 09:07 63.89623 -160.71328 34958 ft 495 kts 110°
2026-04-15 09:07 63.87335 -160.56615 34958 ft 493 kts 112°
2026-04-15 09:08 63.84891 -160.42165 34957 ft 489 kts 113°
2026-04-15 09:08 63.82511 -160.27740 34957 ft 488 kts 112°
2026-04-15 09:09 63.80142 -160.13351 34956 ft 488 kts 112°
2026-04-15 09:09 63.77724 -159.99025 34954 ft 487 kts 113°
2026-04-15 09:10 63.75287 -159.84610 34953 ft 488 kts 113°
2026-04-15 09:10 63.72857 -159.70304 34952 ft 488 kts 113°
2026-04-15 09:11 63.70401 -159.56003 34951 ft 489 kts 113°
2026-04-15 09:11 63.67929 -159.41708 34951 ft 490 kts 113°
2026-04-15 09:12 63.65439 -159.27401 34951 ft 491 kts 114°
2026-04-15 09:12 63.62928 -159.13092 34951 ft 492 kts 114°
2026-04-15 09:13 63.60396 -158.98771 34950 ft 493 kts 114°
2026-04-15 09:13 63.57846 -158.84449 34950 ft 494 kts 114°
2026-04-15 09:14 63.55281 -158.70153 34949 ft 494 kts 114°
2026-04-15 09:14 63.52703 -158.55884 34954 ft 494 kts 114°
2026-04-15 09:15 63.50136 -158.41775 34954 ft 485 kts 115°
2026-04-15 09:15 63.47575 -158.27817 34954 ft 485 kts 115°
2026-04-15 09:16 63.44999 -158.13869 34954 ft 486 kts 115°
2026-04-15 09:16 63.42408 -157.99926 34954 ft 486 kts 115°
2026-04-15 09:17 63.39801 -157.86006 34953 ft 486 kts 115°
2026-04-15 09:17 63.37160 -157.72003 34953 ft 486 kts 115°
2026-04-15 09:18 63.34972 -157.60472 34952 ft 487 kts 115°
2026-04-15 09:18 63.32321 -157.46594 34948 ft 487 kts 116°
2026-04-15 09:19 63.29658 -157.32745 34947 ft 487 kts 116°
2026-04-15 09:19 63.26977 -157.18898 34945 ft 487 kts 116°
2026-04-15 09:20 63.24287 -157.05101 34947 ft 487 kts 116°
2026-04-15 09:20 63.21580 -156.91316 34947 ft 488 kts 116°
2026-04-15 09:21 63.18859 -156.77548 34944 ft 488 kts 116°
2026-04-15 09:21 63.16122 -156.63790 34943 ft 488 kts 116°
2026-04-15 09:22 63.13353 -156.49969 34942 ft 488 kts 116°
2026-04-15 09:22 63.10590 -156.36271 34942 ft 488 kts 117°
2026-04-15 09:23 63.07813 -156.22595 34941 ft 488 kts 117°
2026-04-15 09:23 63.05022 -156.08938 34941 ft 488 kts 117°
2026-04-15 09:24 63.02216 -155.95303 34940 ft 489 kts 117°
2026-04-15 09:24 62.99395 -155.81679 34941 ft 490 kts 117°
2026-04-15 09:25 62.96552 -155.68059 34941 ft 490 kts 117°
2026-04-15 09:25 62.93364 -155.54901 34946 ft 487 kts 124°
2026-04-15 09:26 62.89853 -155.42269 34941 ft 483 kts 125°
2026-04-15 09:26 62.86323 -155.29779 34941 ft 481 kts 125°
2026-04-15 09:27 62.82805 -155.17324 34942 ft 481 kts 125°
2026-04-15 09:27 62.79272 -155.04876 34943 ft 482 kts 125°
2026-04-15 09:28 62.75724 -154.92471 34943 ft 482 kts 125°
2026-04-15 09:28 62.72158 -154.80063 34944 ft 482 kts 125°
2026-04-15 09:29 62.68588 -154.67699 34945 ft 482 kts 126°
2026-04-15 09:29 62.64975 -154.55268 34945 ft 483 kts 126°
2026-04-15 09:30 62.61373 -154.42937 34944 ft 483 kts 126°
2026-04-15 09:30 62.57759 -154.30628 34945 ft 484 kts 126°
2026-04-15 09:31 62.54130 -154.18339 34945 ft 484 kts 126°
2026-04-15 09:31 62.50484 -154.06071 34945 ft 484 kts 126°
2026-04-15 09:32 62.46834 -153.93834 34943 ft 484 kts 126°
2026-04-15 09:32 62.43165 -153.81602 34943 ft 486 kts 127°
2026-04-15 09:33 62.39482 -153.69400 34942 ft 485 kts 127°
2026-04-15 09:33 62.35793 -153.57235 34941 ft 484 kts 127°
2026-04-15 09:34 62.32099 -153.45124 34941 ft 484 kts 127°
2026-04-15 09:34 62.28390 -153.33027 34937 ft 485 kts 127°
2026-04-15 09:35 62.26533 -153.26995 34366 ft 483 kts 127°
2026-04-15 09:35 62.24687 -153.21006 33813 ft 479 kts 127°
2026-04-15 09:35 62.22855 -153.15080 33286 ft 475 kts 127°
2026-04-15 09:35 62.21031 -153.09202 32767 ft 471 kts 128°
2026-04-15 09:36 62.19221 -153.03386 32254 ft 467 kts 128°
2026-04-15 09:36 62.17421 -152.97625 31745 ft 464 kts 128°
2026-04-15 09:36 62.15640 -152.91895 31238 ft 462 kts 126°
2026-04-15 09:36 62.14175 -152.85773 30759 ft 464 kts 115°
2026-04-15 09:37 62.12966 -152.79399 30237 ft 462 kts 115°
2026-04-15 09:37 62.11781 -152.73036 29726 ft 460 kts 115°
2026-04-15 09:37 62.10601 -152.66603 29217 ft 458 kts 115°
2026-04-15 09:37 62.09442 -152.60290 28717 ft 456 kts 115°
2026-04-15 09:38 62.08275 -152.54013 28222 ft 454 kts 115°
2026-04-15 09:38 62.07105 -152.47787 27728 ft 452 kts 116°
2026-04-15 09:38 62.05931 -152.41573 27235 ft 450 kts 116°
2026-04-15 09:38 62.04766 -152.35400 26742 ft 449 kts 116°
2026-04-15 09:39 62.03604 -152.29242 26253 ft 447 kts 116°
2026-04-15 09:39 62.02446 -152.23116 25768 ft 446 kts 116°
2026-04-15 09:39 62.01284 -152.17000 25277 ft 444 kts 116°
2026-04-15 09:39 62.00123 -152.10917 24796 ft 443 kts 117°
2026-04-15 09:40 61.98963 -152.04862 24315 ft 442 kts 117°
2026-04-15 09:40 61.97803 -151.98819 23837 ft 441 kts 117°
2026-04-15 09:40 61.96644 -151.92798 23350 ft 439 kts 117°
2026-04-15 09:40 61.95489 -151.86809 22880 ft 437 kts 117°
2026-04-15 09:41 61.94338 -151.80863 22394 ft 434 kts 117°
2026-04-15 09:41 61.93188 -151.74946 21931 ft 432 kts 117°
2026-04-15 09:41 61.92043 -151.69068 21460 ft 429 kts 117°
2026-04-15 09:41 61.90906 -151.63245 20995 ft 426 kts 116°
2026-04-15 09:42 61.89774 -151.57466 20528 ft 422 kts 116°
2026-04-15 09:42 61.88650 -151.51745 20068 ft 419 kts 116°
2026-04-15 09:42 61.87532 -151.46074 19612 ft 414 kts 116°
2026-04-15 09:42 61.86424 -151.40470 19161 ft 410 kts 115°
2026-04-15 09:43 61.85328 -151.34939 18715 ft 405 kts 115°
2026-04-15 09:43 61.84241 -151.29467 18275 ft 400 kts 115°
2026-04-15 09:43 61.83167 -151.24076 17839 ft 395 kts 115°
2026-04-15 09:43 61.82102 -151.18745 17420 ft 390 kts 115°
2026-04-15 09:44 61.81056 -151.13521 17032 ft 383 kts 115°
2026-04-15 09:44 61.80022 -151.08382 16628 ft 377 kts 115°
2026-04-15 09:44 61.79003 -151.03329 16222 ft 371 kts 115°
2026-04-15 09:44 61.77998 -150.98281 15816 ft 365 kts 111°
2026-04-15 09:45 61.77316 -150.93165 15430 ft 359 kts 105°
2026-04-15 09:45 61.76715 -150.88084 15030 ft 353 kts 105°
2026-04-15 09:45 61.76134 -150.83095 14636 ft 347 kts 105°
2026-04-15 09:45 61.75566 -150.78184 14248 ft 340 kts 105°
2026-04-15 09:46 61.75008 -150.73386 13875 ft 333 kts 105°
2026-04-15 09:46 61.74456 -150.68686 13515 ft 326 kts 105°
2026-04-15 09:46 61.73912 -150.64087 13157 ft 320 kts 105°
2026-04-15 09:46 61.73371 -150.59529 12807 ft 322 kts 106°
2026-04-15 09:47 61.72824 -150.54927 12448 ft 325 kts 106°
2026-04-15 09:47 61.72275 -150.50328 12089 ft 320 kts 106°
2026-04-15 09:47 61.71737 -150.45826 11743 ft 313 kts 106°
2026-04-15 09:47 61.71212 -150.41431 11397 ft 305 kts 106°
2026-04-15 09:48 61.70685 -150.37142 11060 ft 301 kts 110°
2026-04-15 09:48 61.69693 -150.33316 10858 ft 294 kts 133°
2026-04-15 09:48 61.68148 -150.30632 10673 ft 287 kts 155°
2026-04-15 09:48 61.66269 -150.29465 10384 ft 279 kts 177°
2026-04-15 09:49 61.64364 -150.29161 10072 ft 271 kts 179°
2026-04-15 09:49 61.62504 -150.28977 9778 ft 264 kts 179°
2026-04-15 09:49 61.60677 -150.28815 9502 ft 262 kts 179°
2026-04-15 09:49 61.58862 -150.28630 9231 ft 260 kts 178°
2026-04-15 09:50 61.57057 -150.28420 8962 ft 259 kts 177°
2026-04-15 09:50 61.55261 -150.28203 8699 ft 258 kts 177°
2026-04-15 09:50 61.53472 -150.27990 8436 ft 257 kts 177°
2026-04-15 09:50 61.51693 -150.27783 8173 ft 256 kts 177°
2026-04-15 09:51 61.49922 -150.27579 7910 ft 254 kts 177°
2026-04-15 09:51 61.48160 -150.27376 7648 ft 253 kts 177°
2026-04-15 09:51 61.46379 -150.27171 7384 ft 252 kts 177°
2026-04-15 09:51 61.45222 -150.27037 7212 ft 251 kts 177°
2026-04-15 09:52 61.43480 -150.26836 6952 ft 250 kts 177°
2026-04-15 09:52 61.41747 -150.26636 6693 ft 249 kts 177°
2026-04-15 09:52 61.40020 -150.26437 6439 ft 248 kts 177°
2026-04-15 09:52 61.38304 -150.26240 6185 ft 247 kts 177°
2026-04-15 09:53 61.36593 -150.26044 5930 ft 245 kts 177°
2026-04-15 09:53 61.34889 -150.25848 5674 ft 245 kts 177°
2026-04-15 09:53 61.33190 -150.25654 5424 ft 245 kts 177°
2026-04-15 09:53 61.31489 -150.25474 5166 ft 243 kts 180°
2026-04-15 09:54 61.29831 -150.26006 5051 ft 240 kts 198°
2026-04-15 09:54 61.28270 -150.27339 5030 ft 246 kts 203°
2026-04-15 09:54 61.26704 -150.28762 5019 ft 245 kts 204°
2026-04-15 09:54 61.25169 -150.30310 5008 ft 245 kts 214°
2026-04-15 09:55 61.24012 -150.32861 5015 ft 244 kts 240°
2026-04-15 09:55 61.23547 -150.36239 4863 ft 246 kts 266°
2026-04-15 09:55 61.23495 -150.39761 4662 ft 240 kts 269°
2026-04-15 09:55 61.23500 -150.43204 4483 ft 238 kts 270°
2026-04-15 09:56 61.23513 -150.46629 4311 ft 236 kts 269°
2026-04-15 09:56 61.23512 -150.50074 4151 ft 235 kts 269°
2026-04-15 09:56 61.23475 -150.56557 3920 ft 217 kts 267°
2026-04-15 09:57 61.23197 -150.59544 3918 ft 209 kts 243°
2026-04-15 09:57 61.22290 -150.61883 3965 ft 212 kts 216°
2026-04-15 09:57 61.20943 -150.63092 3995 ft 213 kts 188°
2026-04-15 09:57 61.19471 -150.62869 3999 ft 215 kts 161°
2026-04-15 09:58 61.18149 -150.61397 3901 ft 221 kts 144°
2026-04-15 09:58 61.17113 -150.59069 3689 ft 218 kts 120°
2026-04-15 09:58 61.16638 -150.56163 3585 ft 213 kts 97°
2026-04-15 09:58 61.16606 -150.53093 3511 ft 213 kts 90°
2026-04-15 09:59 61.16628 -150.50109 3407 ft 204 kts 90°
2026-04-15 09:59 61.16645 -150.47186 3319 ft 203 kts 90°
2026-04-15 09:59 61.16659 -150.44264 3258 ft 202 kts 90°
2026-04-15 09:59 61.16672 -150.41358 3257 ft 203 kts 90°
2026-04-15 10:00 61.16684 -150.38424 3258 ft 202 kts 90°
2026-04-15 10:00 61.16695 -150.35554 3091 ft 196 kts 90°
2026-04-15 10:00 61.16706 -150.32795 2834 ft 184 kts 90°
2026-04-15 10:00 61.16715 -150.30207 2609 ft 177 kts 90°
2026-04-15 10:01 61.16723 -150.27703 2368 ft 172 kts 90°
2026-04-15 10:01 61.16731 -150.25245 2141 ft 169 kts 90°
2026-04-15 10:01 61.16738 -150.22882 1929 ft 159 kts 91°
2026-04-15 10:01 61.16750 -150.20631 1697 ft 155 kts 90°
2026-04-15 10:02 61.16767 -150.18413 1568 ft 152 kts 91°
2026-04-15 10:02 61.16777 -150.16253 1396 ft 149 kts 92°
2026-04-15 10:02 61.16765 -150.14108 1172 ft 149 kts 94°
2026-04-15 10:02 61.16751 -150.11925 943 ft 150 kts 92°
2026-04-15 10:03 61.16760 -150.09773 734 ft 149 kts 91°
2026-04-15 10:03 61.16777 -150.07632 535 ft 148 kts 92°
2026-04-15 10:03 61.16774 -150.05519 330 ft 146 kts 92°
2026-04-15 10:03 61.16785 -150.03439 171 ft 141 kts 91°
2026-04-15 10:04 61.16785 -150.01612 162 ft 99 kts 91°
2026-04-15 10:04 61.16786 -150.00645 161 ft 41 kts 90°
2026-04-15 10:04 61.16784 -150.00107 161 ft 34 kts 89°
2026-04-15 10:04 61.16823 -149.99674 161 ft 28 kts 68°
2026-04-15 10:05 61.16926 -149.99378 161 ft 25 kts 36°
2026-04-15 10:05 61.17049 -149.99191 161 ft 18 kts 38°
2026-04-15 10:05 61.17141 -149.99081 161 ft 13 kts 353°
2026-04-15 10:05 61.17231 -149.99128 161 ft 14 kts 344°
2026-04-15 10:06 61.17333 -149.99188 161 ft 16 kts 343°
2026-04-15 10:06 61.17454 -149.99279 161 ft 18 kts 338°
2026-04-15 10:06 61.17568 -149.99369 161 ft 17 kts 339°
2026-04-15 10:06 61.17673 -149.99428 161 ft 14 kts 18°
2026-04-15 10:07 61.17730 -149.99269 161 ft 12 kts 78°
2026-04-15 10:07 61.17697 -149.99131 161 ft 11 kts 147°
2026-04-15 10:07 61.17663 -149.99004 161 ft 13 kts 78°
2026-04-15 10:07 61.17698 -149.98799 161 ft 18 kts 70°
2026-04-15 10:08 61.17708 -149.98631 161 ft 9 kts 156°
2026-04-15 10:08 61.17639 -149.98583 161 ft 9 kts 160°
2026-04-15 10:08 61.17612 -149.98493 161 ft 4 kts 120°
2026-04-15 10:08 61.17608 -149.98478 161 ft 0 kts 120°